{"data":{"norad_id":65846,"epoch":"2026-09-20T23:14:59.093664Z","epoch_age_seconds":65569,"freshness":"FRESH","line1":"1 65846U 25221Z   26263.96873951  .00020125  00000+0  60506-3 0  9997","line2":"2 65846  53.1578 257.5921 0001341  86.9254 273.1902 15.34405107 54681","mean_motion":15.34405107,"eccentricity":0.0001341,"inclination_deg":53.1578,"raan_deg":257.5921,"arg_perigee_deg":86.9254,"mean_anomaly_deg":273.1902,"bstar":0.00060506,"rev_number":5468,"period_min":93.847445725427,"perigee_km":461.77070652825,"apogee_km":463.60541580966,"semimajor_km":6840.825061169,"source":"CELESTRAK","updated_at":"2026-09-21T09:00:35.723791Z"}}